#timestamp,LO_Frequency,Hit 
1504944015.7,286046997.8,N
1504944035.6,286046995.3,N
1504944055.4,286046995.5,N
1504944075.2,286046996.3,N
1504944095.1,286046993.8,N
1504944096.0,286046993.8,N
1504944115.8,286046996.4,N
1504944135.6,286046996.9,N
1504944155.5,286046998.9,N
1504944175.3,286047000.3,N
1504944195.1,286047000.6,N
1504944215.8,286047002.2,N
1504944235.7,286047002.8,N
1504944255.5,286047005.6,N
1504944275.3,286047005.4,N
1504944295.2,286047007.5,N
1504944315.9,286047005.0,N
1504944335.7,286047003.3,N
1504944355.6,286047004.2,N
1504944375.4,286047000.3,N
1504944395.2,286046997.3,N
1504944415.1,286046999.5,N
1504944416.0,286046999.5,N
1504944435.8,286046999.3,N
1504944455.6,286046995.0,N
1504944475.4,286046994.6,N
1504944495.3,286046993.1,N
1504944515.1,286046994.5,N
1504944535.8,286046993.5,N
1504944555.7,286046997.5,N
1504944575.5,286046998.3,N
1504944595.3,286047001.2,N
1504944615.2,286046996.6,N
1504944635.9,286046999.1,N
1504944655.7,286046999.6,N
1504944675.6,286046995.0,N
1504944695.4,286046994.7,N
1504944715.2,286046992.9,N
1504944735.1,286046991.2,N
1504944736.0,286046991.2,N
1504944755.8,286046991.0,N
1504944775.6,286046990.1,N
1504944795.5,286046991.1,N
1504944815.3,286046990.6,N
1504944835.1,286046991.4,N
1504944855.8,286046988.8,N
1504944875.7,286046989.3,N
1504944895.5,286046990.0,N
1504944915.3,286046985.7,P
1504944935.2,286046990.7,N
1504944955.0,286046990.3,N
1504944955.9,286046990.3,N
1504944975.8,286046990.7,P
1504944995.6,286047000.8,P
1504945015.4,286046998.3,N
1504945035.2,286047000.5,N
1504945055.1,286047003.0,N
1504945056.0,286047003.0,N
1504945075.8,286047004.7,N
1504945095.6,286047006.6,N
1504945115.5,286047005.3,N
1504945135.3,286047004.1,N
1504945155.1,286047003.2,N
1504945175.9,286047005.5,N
1504945195.7,286047005.1,N
1504945215.5,286047001.3,N
1504945235.4,286047002.2,N
1504945255.2,286047002.5,N
1504945275.0,286047002.2,N
1504945275.9,286047002.2,N
1504945295.8,286047000.8,N
1504945315.6,286047000.3,N
1504945335.4,286047001.1,N
1504945355.3,286047000.6,N
1504945375.1,286046998.7,N
1504945376.0,286046998.7,N
1504945395.8,286046997.0,N
1504945415.6,286046997.5,N
1504945435.5,286046995.7,N
1504945455.3,286046991.8,N
1504945475.1,286046995.7,N
1504945495.9,286046997.1,N
1504945515.7,286046995.3,N
1504945535.5,286046996.8,N
1504945555.4,286046997.4,N
1504945575.2,286046996.4,N
1504945595.0,286046995.4,N
1504945595.9,286046995.4,N
1504945615.8,286046995.7,N
1504945635.6,286046992.9,N
1504945655.4,286046998.0,N
1504945675.3,286046993.7,N
1504945695.1,286046993.4,N
1504945696.0,286046993.4,N
1504945715.8,286046992.7,N
1504945735.7,286046992.5,N
1504945755.5,286046990.5,N
1504945775.3,286046992.9,N
1504945795.1,286046992.7,N
1504945815.9,286046990.8,P
1504945835.7,286046993.3,N
1504945855.6,286046996.7,N
1504945875.4,286046997.6,N
1504945895.2,286046996.3,N
1504945915.0,286046996.3,N
1504945916.0,286046996.3,N
1504945935.8,286046995.2,N
1504945955.6,286046995.1,N
1504945975.4,286046996.2,N
1504945995.3,286046995.7,N
1504946015.1,286046995.8,N
1504946035.8,286046996.2,N
1504946055.7,286046991.3,P
1504946075.5,286046995.1,N
1504946095.3,286046994.4,N
1504946115.2,286046995.9,N
1504946135.9,286046995.6,N
1504946155.7,286046995.0,P
1504946175.6,286046999.7,N
1504946195.4,286047003.7,N
1504946215.2,286047001.6,N
1504946235.1,286047003.6,N
1504946236.0,286047003.6,N
1504946255.8,286047001.3,N
1504946275.6,286047003.8,N
1504946295.5,286047000.6,N
1504946315.3,286047001.7,N
1504946335.1,286047003.0,N
1504946355.9,286047002.7,N
1504946375.7,286047000.7,N
1504946395.5,286046998.8,N
1504946415.3,286046999.7,N
1504946435.2,286046999.3,N
1504946455.0,286047000.5,N
1504946455.9,286047000.5,N
1504946475.7,286047002.8,N
1504946495.6,286047004.2,N
1504946515.4,286047000.1,N
1504946535.2,286047000.3,N
1504946555.1,286046997.3,N
1504946556.0,286046997.3,N
1504946575.8,286046996.5,N
1504946595.6,286046995.1,N
1504946615.5,286046996.1,N
1504946635.3,286046993.5,N
1504946655.1,286046993.9,N
1504946675.9,286046996.1,N
1504946695.7,286046995.8,N
1504946715.5,286046995.7,N
1504946735.4,286046995.7,N
1504946755.2,286046993.4,N
1504946775.0,286046996.4,N
1504946775.9,286046996.4,N
1504946795.8,286046994.5,N
1504946815.6,286046990.6,N
1504946835.4,286046991.7,N
1504946855.2,286046994.2,N
1504946875.1,286046993.5,N
1504946876.0,286046993.5,N
1504946895.8,286046993.0,N
1504946915.6,286046993.1,N
1504946935.5,286046990.3,P
1504946955.3,286046996.6,N
1504946975.1,286046998.1,N
1504946995.9,286046996.9,N
1504947015.7,286046995.4,N
1504947035.5,286046997.3,N
1504947055.4,286046997.7,N
1504947075.2,286046995.6,N
1504947095.0,286046993.4,P
1504947095.9,286046993.4,P
1504947115.8,286046999.4,N
1504947135.6,286047001.1,N
1504947155.4,286047000.7,N
1504947175.3,286047000.8,N
1504947195.1,286046999.4,N
1504947215.8,286046997.6,N
1504947235.7,286046994.9,N
1504947255.5,286046997.4,N
1504947275.3,286046995.7,N
1504947295.2,286046996.4,N
1504947315.9,286046997.7,N
1504947335.7,286046998.4,N
1504947355.6,286046997.5,N
1504947375.4,286046997.4,N
1504947395.2,286046998.6,N
1504947415.0,286046996.5,N
1504947416.0,286046996.5,N
1504947435.8,286046997.4,N
1504947455.6,286046995.6,N
1504947475.5,286046993.7,P
1504947495.3,286046997.9,N
1504947515.1,286046997.2,N
1504947535.9,286046997.6,N
1504947555.7,286046999.1,N
1504947575.5,286046996.6,N
1504947595.4,286046994.9,P
